Weather History for Thermopolis, WY

Change the Weather History Date:

Friday, March 15, 2013

  Actual Average (KWRL) Record (KWRL)
Temperature  
Mean Temperature 46 °F 36 °F  
Max Temperature 55 °F 51 °F 73 °F (1999)
Min Temperature 37 °F 22 °F 9 °F (2002)
Degree Days  
Heating Degree Days 19 29  
Month to date heating degree days 473  
Since 1 July heating degree days 6474  
Cooling Degree Days 0 0  
Month to date cooling degree days 0  
Year to date cooling degree days 0  
Moisture  
Dew Point 18 °F    
Average Humidity 34    
Maximum Humidity 53    
Minimum Humidity 21    
Precipitation  
Precipitation 0.00 in 0.02 in 0.04 in (1980)
Month to date precipitation 0.20  
Year to date precipitation 0.62  
Sea Level Pressure  
Sea Level Pressure 30.09 in    
Wind  
Wind Speed 22 mph (West)    
Max Wind Speed 40 mph    
Max Gust Speed 55 mph    
Visibility 10 miles    
Events      
T = Trace of Precipitation, MM = Missing Value Source: NWS Daily Summary

Daily Weather History Graph

Daily Weather History Graph

Search for Another Location

Airport:

Trip Planner

Search our weather history database for the weather conditions in past years. The results will help you decide how hot, cold, wet, or windy it might be!

Date:

Astronomy

Mar. 15, 2013 Rise Set
Actual Time 7:24 AM MDT 7:19 PM MDT
Civil Twilight 6:56 AM MDT 7:48 PM MDT
Nautical Twilight 6:22 AM MDT 8:21 PM MDT
Astronomical Twilight 5:49 AM MDT 8:55 PM MDT
Moon 9:08 AM MDT (3/15) 11:45 PM MDT (3/15)
Length of Visible Light 12h 52m
Length of Day
11h 55m
Waxing Crescent, 16% of the Moon is Illuminated
Mar 15
Waxing Crescent
Mar 19
First Quarter
Mar 27
Full
Apr 2
Last Quarter
Apr 10
New

Hourly Weather History & Observations

Time (MDT) Temp. Windchill Dew Point Humidity Pressure Visibility Wind Dir Wind Speed Gust Speed Precip Events Conditions
12:15 AM 48.2 °F - 10.4 °F 22% 30.17 in 10.0 mi SW 21.9 mph 26.5 mph N/A   Clear
12:35 AM 48.2 °F - 10.4 °F 22% 30.18 in 10.0 mi SW 23.0 mph 32.2 mph N/A   Clear
12:55 AM 50.0 °F - 12.2 °F 22% 30.16 in 10.0 mi SSW 35.7 mph 42.6 mph N/A   Clear
1:35 AM 50.0 °F - 15.8 °F 26% 30.14 in 10.0 mi SW 32.2 mph 46.0 mph N/A   Clear
1:55 AM 50.0 °F - 17.6 °F 28% 30.14 in 10.0 mi SW 36.8 mph 48.3 mph N/A   Clear
2:15 AM 50.0 °F - 19.4 °F 30% 30.14 in 10.0 mi SW 38.0 mph 55.2 mph N/A   Clear
2:35 AM 50.0 °F - 19.4 °F 30% 30.14 in 10.0 mi SW 35.7 mph 46.0 mph N/A   Clear
2:55 AM 50.0 °F - 19.4 °F 30% 30.14 in 10.0 mi SW 29.9 mph 42.6 mph N/A   Clear
3:15 AM 48.2 °F - 19.4 °F 32% 30.13 in 10.0 mi SW 33.4 mph 43.7 mph N/A   Clear
3:35 AM 48.2 °F - 19.4 °F 32% 30.12 in 10.0 mi SSW 28.8 mph 42.6 mph N/A   Clear
3:55 AM 46.4 °F 36.9 °F 21.2 °F 37% 30.11 in 10.0 mi SW 32.2 mph 47.2 mph N/A   Clear
4:15 AM 48.2 °F - 23.0 °F 37% 30.11 in 10.0 mi SW 33.4 mph 46.0 mph N/A   Clear
4:35 AM 46.4 °F 37.2 °F 23.0 °F 40% 30.10 in 10.0 mi SW 29.9 mph 49.5 mph N/A   Clear
4:55 AM 46.4 °F 36.3 °F 23.0 °F 40% 30.09 in 10.0 mi SW 36.8 mph 46.0 mph N/A   Clear
5:15 AM 46.4 °F 37.2 °F 21.2 °F 37% 30.09 in 10.0 mi SW 29.9 mph 52.9 mph N/A   Clear
5:35 AM 46.4 °F 35.8 °F 21.2 °F 37% 30.08 in 10.0 mi SSW 40.3 mph 50.6 mph N/A   Clear
5:55 AM 46.4 °F 37.7 °F 21.2 °F 37% 30.10 in 10.0 mi SSW 26.5 mph 41.4 mph N/A   Clear
6:15 AM 44.6 °F 35.9 °F 21.2 °F 39% 30.10 in 10.0 mi SSW 23.0 mph 29.9 mph N/A   Clear
6:35 AM 44.6 °F 36.1 °F 19.4 °F 37% 30.11 in 10.0 mi SW 21.9 mph 27.6 mph N/A   Clear
6:55 AM 44.6 °F 36.1 °F 19.4 °F 37% 30.10 in 10.0 mi SSW 21.9 mph 29.9 mph N/A   Clear
7:15 AM 44.6 °F 37.2 °F 17.6 °F 34% 30.10 in 10.0 mi SW 17.3 mph 25.3 mph N/A   Clear
7:35 AM 44.6 °F 37.2 °F 17.6 °F 34% 30.10 in 10.0 mi SW 17.3 mph 26.5 mph N/A   Clear
7:55 AM 44.6 °F 38.1 °F 17.6 °F 34% 30.10 in 10.0 mi SW 13.8 mph 20.7 mph N/A   Clear
8:35 AM 46.4 °F 41.5 °F 14.0 °F 27% 30.10 in 10.0 mi WSW 10.4 mph - N/A   Clear
8:55 AM 44.6 °F 41.4 °F 15.8 °F 31% 30.10 in 10.0 mi SSW 5.8 mph - N/A   Clear
10:15 AM 48.2 °F - 14.0 °F 25% 30.11 in 10.0 mi West 3.5 mph - N/A   Clear
10:35 AM 50.0 °F - 14.0 °F 24% 30.11 in 10.0 mi Calm Calm - N/A   Clear
10:55 AM 50.0 °F - 17.6 °F 28% 30.12 in 10.0 mi SW 3.5 mph - N/A   Clear
11:15 AM 50.0 °F - 14.0 °F 24% 30.11 in 10.0 mi NNW 4.6 mph - N/A   Clear
11:35 AM 50.0 °F - 17.6 °F 28% 30.12 in 10.0 mi NNW 5.8 mph - N/A   Clear
11:55 AM 50.0 °F - 15.8 °F 26% 30.11 in 10.0 mi North 4.6 mph - N/A   Clear
12:15 PM 50.0 °F - 14.0 °F 24% 30.11 in 10.0 mi North 5.8 mph - N/A   Clear
12:35 PM 51.8 °F - 15.8 °F 24% 30.10 in 10.0 mi North 6.9 mph - N/A   Clear
12:55 PM 51.8 °F - 12.2 °F 21% 30.10 in 10.0 mi Calm Calm - N/A   Clear
1:15 PM 51.8 °F - 14.0 °F 22% 30.09 in 10.0 mi ESE 10.4 mph 16.1 mph N/A   Clear
1:35 PM 53.6 °F - 14.0 °F 21% 30.08 in 10.0 mi ESE 8.1 mph - N/A   Clear
1:55 PM 53.6 °F - 14.0 °F 21% 30.07 in 10.0 mi South 9.2 mph 19.6 mph N/A   Scattered Clouds
2:15 PM 55.4 °F - 17.6 °F 23% 30.06 in 10.0 mi West 12.7 mph - N/A   Mostly Cloudy
2:35 PM 53.6 °F - 14.0 °F 21% 30.05 in 10.0 mi NW 10.4 mph - N/A   Scattered Clouds
2:55 PM 50.0 °F - 19.4 °F 30% 30.05 in 10.0 mi NNW 16.1 mph 20.7 mph N/A   Clear
3:15 PM 50.0 °F - 21.2 °F 32% 30.04 in 10.0 mi NNW 15.0 mph - N/A   Clear
3:35 PM 51.8 °F - 17.6 °F 26% 30.04 in 10.0 mi NNW 17.3 mph - N/A   Clear
3:55 PM 53.6 °F - 17.6 °F 24% 30.04 in 10.0 mi NNW 11.5 mph - N/A   Clear
4:15 PM 51.8 °F - 17.6 °F 26% 30.04 in 10.0 mi NW 10.4 mph - N/A   Clear
4:35 PM 50.0 °F - 19.4 °F 30% 30.04 in 10.0 mi NW 20.7 mph 26.5 mph N/A   Clear
4:55 PM 46.4 °F 38.3 °F 19.4 °F 34% 30.04 in 10.0 mi NNW 23.0 mph - N/A   Clear
5:15 PM 46.4 °F 38.3 °F 19.4 °F 34% 30.03 in 10.0 mi NNW 23.0 mph - N/A   Clear
5:35 PM 46.4 °F 38.7 °F 19.4 °F 34% 30.03 in 10.0 mi NNW 20.7 mph - N/A   Clear
5:55 PM 46.4 °F 39.0 °F 21.2 °F 37% 30.04 in 10.0 mi NNW 19.6 mph - N/A   Scattered Clouds
6:15 PM 44.6 °F 37.4 °F 24.8 °F 46% 30.04 in 10.0 mi North 16.1 mph - N/A   Scattered Clouds
6:35 PM 44.6 °F 36.9 °F 24.8 °F 46% 30.05 in 10.0 mi North 18.4 mph - N/A   Clear
6:55 PM 44.6 °F 37.2 °F 23.0 °F 43% 30.05 in 10.0 mi North 17.3 mph - N/A   Scattered Clouds
7:15 PM 44.6 °F 37.4 °F 24.8 °F 46% 30.05 in 10.0 mi NNW 16.1 mph - N/A   Mostly Cloudy
7:35 PM 42.8 °F 35.1 °F 26.6 °F 53% 30.05 in 10.0 mi NW 16.1 mph - N/A   Overcast
7:55 PM 42.8 °F 33.8 °F 24.8 °F 49% 30.06 in 10.0 mi NW 21.9 mph - N/A   Overcast
8:15 PM 42.8 °F 33.3 °F 19.4 °F 39% 30.06 in 10.0 mi NNW 24.2 mph - N/A   Overcast
8:35 PM 41.0 °F 30.5 °F 17.6 °F 39% 30.06 in 10.0 mi NW 26.5 mph - N/A   Overcast
8:55 PM 41.0 °F 31.1 °F 19.4 °F 42% 30.07 in 10.0 mi NW 23.0 mph - N/A   Mostly Cloudy
9:15 PM 39.2 °F 29.0 °F 19.4 °F 45% 30.08 in 10.0 mi WNW 21.9 mph - N/A   Mostly Cloudy
9:35 PM 39.2 °F 28.7 °F 19.4 °F 45% 30.09 in 10.0 mi WNW 23.0 mph - N/A   Overcast
9:55 PM 39.2 °F 29.0 °F 19.4 °F 45% 30.09 in 10.0 mi WNW 21.9 mph - N/A   Mostly Cloudy
10:15 PM 37.4 °F 26.6 °F 19.4 °F 48% 30.10 in 10.0 mi WNW 21.9 mph - N/A   Mostly Cloudy
10:35 PM 37.4 °F 26.4 °F 19.4 °F 48% 30.10 in 10.0 mi WNW 23.0 mph - N/A   Mostly Cloudy
10:55 PM 37.4 °F 27.2 °F 19.4 °F 48% 30.10 in 10.0 mi NW 19.6 mph - N/A   Mostly Cloudy
11:15 PM 37.4 °F 27.2 °F 19.4 °F 48% 30.10 in 10.0 mi NW 19.6 mph - N/A   Overcast
11:35 PM 37.4 °F 28.2 °F 17.6 °F 45% 30.10 in 10.0 mi NW 16.1 mph - N/A   Mostly Cloudy